EDT,Max TemperatureF,Mean TemperatureF,Min TemperatureF,Max Dew PointF,MeanDew PointF,Min DewpointF,Max Humidity, Mean Humidity, Min Humidity, Max Sea Level PressureIn, Mean Sea Level PressureIn, Min Sea Level PressureIn, Max VisibilityMiles, Mean VisibilityMiles, Min VisibilityMiles, Max Wind SpeedMPH, Mean Wind SpeedMPH, Max Gust SpeedMPH,PrecipitationIn, CloudCover, Events, WindDirDegrees
2013-7-1,86,77,68,72,67,63,94,78,45,29.96,29.88,29.82,10,9,4,9,3,22,0.00,4,Rain,81
2013-7-2,86,75,64,70,67,63,100,77,48,30.07,30.01,29.94,10,10,5,7,1,,0.00,3,,161
2013-7-3,87,78,68,72,69,66,94,76,52,30.18,30.13,30.06,10,10,7,7,1,,0.00,1,Rain,181
2013-7-4,86,78,69,72,69,68,100,85,58,30.24,30.18,30.13,10,9,1,10,1,,0.00,3,Rain,92
2013-7-5,87,78,69,72,69,68,100,85,55,30.21,30.17,30.13,10,9,2,12,2,17,0.00,3,Rain,220
2013-7-6,89,78,68,72,70,66,100,85,52,30.20,30.15,30.07,10,9,1,12,2,22,0.00,2,Rain,199
2013-7-7,82,75,68,72,69,68,100,88,66,30.17,30.12,30.07,10,9,2,7,2,,0.00,4,Rain,210
2013-7-8,87,76,66,73,69,64,100,79,55,30.19,30.14,30.10,10,9,3,12,2,,0.00,1,Rain,229
2013-7-9,93,83,73,75,72,72,94,78,52,30.13,30.09,30.03,10,8,3,10,3,,0.00,2,Rain,233
2013-7-10,93,80,68,77,72,66,94,80,55,30.05,29.98,29.89,10,9,2,12,3,18,0.00,2,Rain,206
2013-7-11,80,74,68,70,67,63,100,85,65,30.01,29.99,29.96,10,8,3,6,1,,0.00,5,Rain,39
2013-7-12,86,73,60,63,60,55,88,68,37,30.11,30.05,30.01,10,10,10,18,2,25,0.00,1,Rain,42
2013-7-13,87,73,59,70,63,57,100,73,46,30.19,30.13,30.08,10,10,7,10,2,,0.00,0,,88
2013-7-14,91,80,68,72,69,66,100,72,46,30.28,30.23,30.18,10,10,7,9,2,16,0.00,1,,135
2013-7-15,95,82,68,73,69,64,94,70,38,30.35,30.31,30.27,10,10,7,6,1,,0.00,0,,160
2013-7-16,96,82,69,75,71,66,100,73,39,30.36,30.31,30.27,10,10,4,4,0,,0.00,1,Rain,287
2013-7-17,96,84,73,79,75,72,100,78,44,30.33,30.27,30.18,10,8,3,6,0,,0.00,2,Rain,54
2013-7-18,96,84,73,77,74,70,100,75,41,30.22,30.15,30.07,10,7,0,6,1,,0.00,2,Fog,232
2013-7-19,93,82,71,77,73,70,100,83,55,30.09,30.03,29.95,10,7,0,9,2,,0.00,4,Fog-Rain,183
2013-7-20,93,81,69,75,71,68,100,84,49,29.98,29.95,29.90,10,8,0,13,2,22,0.00,1,Rain,229
2013-7-21,87,78,69,73,70,68,100,85,55,30.02,29.96,29.92,10,7,1,9,0,,0.00,3,Rain,142
2013-7-22,82,76,69,73,70,70,100,91,70,29.98,29.88,29.81,10,7,1,8,1,,0.00,6,Rain,220
2013-7-23,89,80,71,73,70,68,100,78,52,29.85,29.81,29.74,10,9,4,9,3,,0.00,4,,242
2013-7-24,78,70,62,70,64,59,100,79,54,30.00,29.90,29.79,10,9,2,12,3,,0.00,3,Rain,48
2013-7-25,80,68,55,63,57,54,100,73,42,30.11,30.06,30.00,10,10,7,7,1,,0.00,0,,53
2013-7-26,84,70,55,68,60,55,100,76,37,30.12,30.08,30.01,10,7,0,7,0,,0.00,3,Fog,187
2013-7-27,80,71,62,68,64,61,100,81,61,30.02,29.94,29.89,10,8,3,10,2,,0.00,2,Rain,236
2013-7-28,78,68,57,66,59,50,100,74,39,30.10,30.00,29.91,10,8,1,12,3,20,0.00,3,Rain,250
2013-7-29,82,66,51,63,57,52,100,72,39,30.22,30.16,30.09,10,10,10,12,2,,0.00,1,,243
2013-7-30,86,72,59,68,62,57,100,76,37,30.27,30.21,30.16,10,9,0,5,0,,0.00,2,Fog,261
2013-7-31,77,72,68,68,66,63,94,84,61,30.17,30.09,29.99,10,9,3,6,1,,0.00,4,Rain,168